Kankakee, IL

4:42 PM CST on December 07, 2019 (GMT -0600)
Greater Kankakee

Weather History for KIKK - October, 2019

Change the Weather History Date:

Thursday, October 3, 2019

  Actual Average Record
Temperature  
Mean Temperature 60 °F -  
Max Temperature 68 °F 70 °F 89 °F (2006)
Min Temperature 50 °F 43 °F 28 °F (2004)
Degree Days  
Heating Degree Days 6    
Growing Degree Days 10 (Base 50)    
Moisture  
Dew Point 56 °F    
Average Humidity 82    
Maximum Humidity 98    
Minimum Humidity 62    
Precipitation  
Precipitation 0.00 in - - ()
Sea Level Pressure  
Sea Level Pressure 30.07 in    
Wind  
Wind Speed 6 mph (NW)    
Max Wind Speed 17 mph    
Max Gust Speed 25 mph    
Visibility 10 miles    
Events Rain , Thunderstorm    
Averages and records for this station are not official NWS values.
T = Trace of Precipitation, MM = Missing Value Source: NWS Daily Summary

Daily Weather History Graph

Daily Weather History Graph

Search for Another Location

Airport or City:

Astronomy

Oct. 03, 2019 Rise Set
Actual Time 6:49 AM CDT 6:30 PM CDT
Civil Twilight 6:22 AM CDT 6:57 PM CDT
Nautical Twilight 5:50 AM CDT 7:29 PM CDT
Astronomical Twilight 5:18 AM CDT 8:01 PM CDT
Moon 12:23 PM CDT (10/3) 10:06 PM CDT (10/3)
Length of Visible Light 12h 35m
Length of Day
11h 40m
Waxing Crescent, 30% of the Moon is Illuminated
Oct 3
Waxing Crescent
Oct 5
First Quarter
Oct 13
Full
Oct 21
Last Quarter
Oct 27
New

Hourly Weather History & Observations

Time (CDT) Temp. Dew Point Humidity Pressure Visibility Wind Dir Wind Speed Gust Speed Precip Events Conditions
12:15 AM 63.1 °F 61.5 °F 94% 29.93 in 10.0 mi Calm Calm - N/A Thunderstorm Overcast
12:35 AM 63.5 °F 61.7 °F 94% 29.94 in 10.0 mi NW 5.8 mph - N/A   Mostly Cloudy
12:55 AM 63.5 °F 62.2 °F 96% 29.94 in 10.0 mi NNW 5.8 mph - N/A   Overcast
1:15 AM 63.0 °F 62.2 °F 97% 29.93 in 10.0 mi NNE 3.5 mph - N/A   Mostly Cloudy
1:35 AM 63.0 °F 62.2 °F 97% 29.92 in 10.0 mi Calm Calm - N/A   Mostly Cloudy
1:55 AM 62.8 °F 62.2 °F 98% 29.87 in 10.0 mi ESE 6.9 mph - N/A   Scattered Clouds
2:15 AM 63.0 °F 62.2 °F 97% 29.89 in 10.0 mi Calm Calm - N/A   Scattered Clouds
2:35 AM 63.0 °F 62.1 °F 97% 29.89 in 10.0 mi Calm Calm - N/A   Scattered Clouds
2:55 AM 63.0 °F 62.2 °F 97% 29.90 in 10.0 mi Calm Calm - N/A   Clear
3:15 AM 63.1 °F 62.6 °F 98% 29.92 in 10.0 mi Calm Calm - N/A   Mostly Cloudy
3:35 AM 63.0 °F 62.2 °F 97% 29.91 in 10.0 mi Calm Calm - N/A   Mostly Cloudy
3:55 AM 63.0 °F 62.2 °F 97% 29.91 in 10.0 mi Calm Calm - N/A Rain Light Rain
4:15 AM 63.0 °F 62.4 °F 98% 29.92 in 10.0 mi Calm Calm - N/A Rain Rain
4:35 AM 63.5 °F 62.6 °F 97% 29.92 in 10.0 mi Calm Calm - N/A   Light Drizzle
4:55 AM 63.1 °F 62.6 °F 98% 29.92 in 10.0 mi Calm Calm - N/A   Scattered Clouds
5:15 AM 63.5 °F 62.8 °F 97% 29.93 in 10.0 mi Calm Calm - N/A   Mostly Cloudy
5:35 AM 63.5 °F 62.8 °F 97% 29.95 in 10.0 mi West 4.6 mph - N/A   Overcast
5:55 AM 63.5 °F 62.8 °F 97% 29.95 in 10.0 mi West 4.6 mph - N/A   Overcast
6:15 AM 63.1 °F 62.6 °F 98% 29.95 in 10.0 mi West 5.8 mph - N/A   Mostly Cloudy
6:35 AM 63.5 °F 62.6 °F 97% 29.95 in 10.0 mi West 5.8 mph - N/A   Mostly Cloudy
6:55 AM 64.2 °F 63.5 °F 98% 29.97 in 10.0 mi West 10.4 mph - N/A   Overcast
7:15 AM 64.8 °F 64.0 °F 98% 29.97 in 10.0 mi WNW 10.4 mph - N/A   Overcast
7:35 AM 64.8 °F 63.9 °F 97% 29.98 in 10.0 mi WNW 11.5 mph 18.4 mph N/A   Overcast
7:55 AM 64.4 °F 63.5 °F 97% 30.00 in 10.0 mi WNW 12.7 mph 19.6 mph N/A   Overcast
8:15 AM 64.4 °F 62.6 °F 94% 30.00 in 10.0 mi WNW 13.8 mph 19.6 mph N/A   Overcast
8:35 AM 63.7 °F 62.1 °F 94% 30.01 in 10.0 mi WNW 13.8 mph 23.0 mph N/A   Overcast
8:55 AM 63.9 °F 61.9 °F 93% 30.02 in 10.0 mi WNW 9.2 mph - N/A   Overcast
9:15 AM 64.0 °F 61.2 °F 90% 30.03 in 10.0 mi WNW 12.7 mph 23.0 mph N/A   Overcast
9:35 AM 63.5 °F 60.1 °F 89% 30.04 in 10.0 mi WNW 15.0 mph 25.3 mph N/A   Overcast
9:55 AM 63.1 °F 59.7 °F 89% 30.05 in 10.0 mi NW 9.2 mph 17.3 mph N/A   Overcast
10:15 AM 63.5 °F 59.2 °F 86% 30.06 in 10.0 mi WNW 17.3 mph 25.3 mph N/A   Overcast
10:35 AM 63.9 °F 59.2 °F 85% 30.07 in 10.0 mi WNW 11.5 mph - N/A   Overcast
10:55 AM 63.9 °F 59.5 °F 86% 30.07 in 10.0 mi WNW 11.5 mph 18.4 mph N/A   Overcast
11:15 AM 63.7 °F 58.6 °F 84% 30.08 in 10.0 mi WNW 15.0 mph 23.0 mph N/A   Overcast
11:35 AM 63.7 °F 57.0 °F 79% 30.08 in 10.0 mi NW 12.7 mph 24.2 mph N/A   Overcast
11:55 AM 65.7 °F 56.1 °F 71% 30.08 in 10.0 mi NW 13.8 mph 18.4 mph N/A   Mostly Cloudy
12:15 PM 66.0 °F 55.8 °F 69% 30.09 in 10.0 mi WNW 13.8 mph 19.6 mph N/A   Mostly Cloudy
12:35 PM 66.0 °F 55.2 °F 68% 30.09 in 10.0 mi NW 15.0 mph 20.7 mph N/A   Mostly Cloudy
12:55 PM 67.6 °F 54.7 °F 63% 30.11 in 10.0 mi WNW 13.8 mph 24.2 mph N/A   Scattered Clouds
1:15 PM 68.2 °F 55.2 °F 63% 30.10 in 10.0 mi WNW 17.3 mph 23.0 mph N/A   Scattered Clouds
1:35 PM 66.4 °F 53.4 °F 63% 30.10 in 10.0 mi WNW 15.0 mph 20.7 mph N/A   Scattered Clouds
1:55 PM 67.8 °F 54.1 °F 62% 30.09 in 10.0 mi WNW 13.8 mph 23.0 mph N/A   Scattered Clouds
2:15 PM 67.8 °F 54.5 °F 62% 30.10 in 10.0 mi NW 13.8 mph - N/A   Scattered Clouds
2:35 PM 66.4 °F 53.1 °F 62% 30.11 in 10.0 mi NW 12.7 mph 20.7 mph N/A   Scattered Clouds
2:55 PM 65.5 °F 52.2 °F 62% 30.11 in 10.0 mi NW 11.5 mph 20.7 mph N/A   Clear
3:15 PM 64.8 °F 53.1 °F 66% 30.12 in 10.0 mi WNW 12.7 mph 17.3 mph N/A   Scattered Clouds
3:35 PM 64.8 °F 52.3 °F 64% 30.12 in 10.0 mi NNW 11.5 mph - N/A   Scattered Clouds
3:55 PM 64.4 °F 51.8 °F 64% 30.12 in 10.0 mi NNW 11.5 mph 17.3 mph N/A   Clear
4:15 PM 63.9 °F 52.0 °F 65% 30.14 in 10.0 mi NW 10.4 mph - N/A   Scattered Clouds
4:35 PM 63.1 °F 51.4 °F 66% 30.14 in 10.0 mi NW 10.4 mph - N/A   Scattered Clouds
4:55 PM 62.6 °F 51.6 °F 67% 30.15 in 10.0 mi WNW 10.4 mph 18.4 mph N/A   Mostly Cloudy
5:15 PM 61.3 °F 50.7 °F 68% 30.17 in 10.0 mi WNW 10.4 mph - N/A   Scattered Clouds
5:35 PM 60.6 °F 50.0 °F 68% 30.17 in 10.0 mi NW 11.5 mph - N/A   Scattered Clouds
5:55 PM 59.9 °F 49.8 °F 69% 30.17 in 10.0 mi NW 9.2 mph - N/A   Mostly Cloudy
6:15 PM 59.9 °F 49.3 °F 68% 30.18 in 10.0 mi NW 9.2 mph 16.1 mph N/A   Overcast
6:35 PM 59.2 °F 50.0 °F 72% 30.19 in 10.0 mi NW 8.1 mph - N/A   Mostly Cloudy
6:55 PM 59.0 °F 49.1 °F 70% 30.20 in 10.0 mi NW 8.1 mph - N/A   Mostly Cloudy
7:15 PM 58.5 °F 49.3 °F 72% 30.20 in 10.0 mi NNW 9.2 mph - N/A   Overcast
7:35 PM 57.9 °F 48.4 °F 71% 30.20 in 10.0 mi NNW 10.4 mph - N/A   Scattered Clouds
7:55 PM 56.8 °F 47.8 °F 72% 30.21 in 10.0 mi NNW 11.5 mph - N/A   Clear
8:15 PM 56.3 °F 47.5 °F 72% 30.22 in 10.0 mi NNW 9.2 mph - N/A   Clear
8:35 PM 55.4 °F 47.1 °F 74% 30.22 in 10.0 mi NNW 8.1 mph - N/A   Clear
8:55 PM 54.5 °F 46.4 °F 74% 30.24 in 10.0 mi NW 6.9 mph - N/A   Clear
9:15 PM 54.3 °F 46.6 °F 75% 30.24 in 10.0 mi NNW 6.9 mph - N/A   Clear
9:35 PM 53.6 °F 46.6 °F 77% 30.24 in 10.0 mi NW 5.8 mph - N/A   Clear
9:55 PM 53.1 °F 46.6 °F 79% 30.25 in 10.0 mi NNW 6.9 mph - N/A   Clear
10:15 PM 52.7 °F 46.4 °F 79% 30.26 in 10.0 mi NW 5.8 mph - N/A   Clear
10:35 PM 52.2 °F 46.4 °F 81% 30.27 in 10.0 mi NNW 8.1 mph - N/A   Clear
10:55 PM 52.0 °F 46.0 °F 80% 30.27 in 10.0 mi NNW 8.1 mph - N/A   Clear
11:15 PM 52.0 °F 45.5 °F 79% 30.27 in 10.0 mi NNW 9.2 mph - N/A   Clear
11:35 PM 51.1 °F 45.1 °F 80% 30.27 in 10.0 mi NNW 5.8 mph - N/A   Clear
11:55 PM 50.5 °F 45.0 °F 81% 30.27 in 10.0 mi NNW 5.8 mph - N/A   Clear